Time,TemperatureF,DewpointF,PressureIn,WindDirection,WindDirectionDegrees,WindSpeedMPH,WindSpeedGustMPH,Humidity,HourlyPrecipIn,Conditions,Clouds,dailyrainin,SoftwareType,DateUTC
2013-05-13 00:01:00,57.0,53.0,29.98,NNW,338,0.0,0.0,87,0.00,,,0.00,,2013-05-13 07:01:00,
2013-05-13 00:11:00,57.0,53.0,29.98,NNW,338,0.0,0.0,87,0.00,,,0.00,,2013-05-13 07:11:00,
2013-05-13 00:21:00,57.0,53.0,29.98,NNW,338,0.0,0.0,87,0.00,,,0.00,,2013-05-13 07:21:00,
2013-05-13 00:31:00,57.0,53.0,29.98,NNW,338,0.0,0.0,87,0.00,,,0.00,,2013-05-13 07:31:00,
2013-05-13 00:41:00,57.0,53.0,29.98,NNW,338,0.0,0.0,88,0.00,,,0.00,,2013-05-13 07:41:00,
2013-05-13 00:52:00,57.0,53.0,29.98,NNW,338,0.0,0.0,88,0.00,,,0.00,,2013-05-13 07:52:00,
2013-05-13 01:01:00,57.0,53.0,29.99,NNW,338,0.0,0.0,88,0.00,,,0.00,,2013-05-13 08:01:00,
2013-05-13 01:11:00,57.0,53.0,29.99,NNW,338,0.0,0.0,88,0.00,,,0.00,,2013-05-13 08:11:00,
2013-05-13 01:21:00,57.0,53.0,29.99,NNW,338,0.0,0.0,88,0.00,,,0.00,,2013-05-13 08:21:00,
2013-05-13 01:31:00,57.0,53.0,29.99,NNW,338,0.0,0.0,88,0.00,,,0.00,,2013-05-13 08:31:00,
2013-05-13 01:41:00,57.0,53.0,29.99,NNW,338,0.0,0.0,88,0.00,,,0.00,,2013-05-13 08:41:00,
2013-05-13 01:52:00,57.0,53.0,29.99,NNW,338,0.0,0.0,88,0.00,,,0.00,,2013-05-13 08:52:00,
2013-05-13 02:01:00,57.0,53.0,29.99,NNW,338,0.0,0.0,88,0.00,,,0.00,,2013-05-13 09:01:00,
2013-05-13 02:33:00,56.0,52.0,29.98,NNW,338,0.0,0.0,88,0.00,,,0.00,,2013-05-13 09:33:00,
2013-05-13 02:42:00,56.0,52.0,29.98,NNW,338,0.0,0.0,88,0.00,,,0.00,,2013-05-13 09:42:00,
2013-05-13 02:52:00,56.0,52.0,29.98,NNW,338,0.0,0.0,88,0.00,,,0.00,,2013-05-13 09:52:00,
2013-05-13 03:02:00,56.0,52.0,29.98,NNW,338,0.0,0.0,88,0.00,,,0.00,,2013-05-13 10:02:00,
2013-05-13 03:12:00,56.0,52.0,29.98,NNW,338,0.0,0.0,88,0.00,,,0.00,,2013-05-13 10:12:00,
2013-05-13 03:22:00,56.0,52.0,29.97,NNW,338,0.0,0.0,88,0.00,,,0.00,,2013-05-13 10:22:00,
2013-05-13 03:32:00,56.0,53.0,29.96,NNW,338,1.0,2.0,89,0.00,,,0.00,,2013-05-13 10:32:00,
2013-05-13 03:42:00,56.0,53.0,29.96,NNW,338,1.0,2.0,89,0.00,,,0.00,,2013-05-13 10:42:00,
2013-05-13 03:52:00,56.0,53.0,29.96,NNW,338,0.0,0.0,89,0.00,,,0.00,,2013-05-13 10:52:00,
2013-05-13 04:02:00,56.0,53.0,29.96,NNW,338,0.0,0.0,89,0.00,,,0.00,,2013-05-13 11:02:00,
2013-05-13 04:12:00,56.0,53.0,29.96,NNW,338,0.0,0.0,89,0.00,,,0.00,,2013-05-13 11:12:00,
2013-05-13 04:21:00,56.0,53.0,29.96,NNW,338,0.0,0.0,89,0.00,,,0.00,,2013-05-13 11:21:00,
2013-05-13 04:32:00,56.0,53.0,29.96,NE,45,2.0,2.0,89,0.00,,,0.00,,2013-05-13 11:32:00,
2013-05-13 04:42:00,56.0,53.0,29.96,NE,45,2.0,2.0,89,0.00,,,0.00,,2013-05-13 11:42:00,
2013-05-13 04:52:00,56.0,53.0,29.97,NNW,338,0.0,0.0,89,0.00,,,0.00,,2013-05-13 11:52:00,
2013-05-13 05:01:00,56.0,53.0,29.97,NNW,338,0.0,0.0,89,0.00,,,0.00,,2013-05-13 12:01:00,
2013-05-13 05:11:00,56.0,53.0,29.97,NNW,338,0.0,0.0,89,0.00,,,0.00,,2013-05-13 12:11:00,
2013-05-13 05:21:00,56.0,53.0,29.97,NNW,338,0.0,0.0,89,0.00,,,0.00,,2013-05-13 12:21:00,
2013-05-13 05:32:00,56.0,53.0,29.97,NNE,22,0.0,3.0,89,0.00,,,0.00,,2013-05-13 12:32:00,
2013-05-13 05:42:00,56.0,53.0,29.97,NNE,22,0.0,3.0,89,0.00,,,0.00,,2013-05-13 12:42:00,
2013-05-13 05:51:00,56.0,53.0,29.97,NNE,22,0.0,0.0,89,0.00,,,0.00,,2013-05-13 12:51:00,
2013-05-13 06:01:00,56.0,53.0,29.97,NNE,22,0.0,0.0,89,0.00,,,0.00,,2013-05-13 13:01:00,
2013-05-13 06:11:00,56.0,53.0,29.97,NNE,22,0.0,0.0,89,0.00,,,0.00,,2013-05-13 13:11:00,
2013-05-13 06:21:00,56.0,53.0,29.97,NNE,22,0.0,0.0,89,0.00,,,0.00,,2013-05-13 13:21:00,
2013-05-13 06:32:00,56.0,52.0,29.96,NE,45,0.0,0.0,88,0.00,,,0.00,,2013-05-13 13:32:00,
2013-05-13 06:42:00,56.0,52.0,29.95,NNW,338,0.0,0.0,88,0.00,,,0.00,,2013-05-13 13:42:00,
2013-05-13 06:52:00,56.0,52.0,29.95,NNW,338,0.0,0.0,88,0.00,,,0.00,,2013-05-13 13:52:00,
2013-05-13 07:01:00,56.0,52.0,29.94,NE,45,1.0,2.0,88,0.00,,,0.00,,2013-05-13 14:01:00,
2013-05-13 07:11:00,56.0,52.0,29.94,NE,45,1.0,2.0,88,0.00,,,0.00,,2013-05-13 14:11:00,
2013-05-13 07:21:00,56.0,52.0,29.94,NNE,22,0.0,0.0,88,0.00,,,0.00,,2013-05-13 14:21:00,
2013-05-13 07:31:00,56.0,52.0,29.94,NNE,22,0.0,0.0,88,0.00,,,0.00,,2013-05-13 14:31:00,
2013-05-13 07:41:00,57.0,53.0,29.94,NNW,338,0.0,0.0,88,0.00,,,0.00,,2013-05-13 14:41:00,
2013-05-13 07:51:00,57.0,53.0,29.94,NNW,338,0.0,0.0,88,0.00,,,0.00,,2013-05-13 14:51:00,
2013-05-13 08:01:00,57.0,53.0,29.95,North,0,0.0,1.0,88,0.00,,,0.00,,2013-05-13 15:01:00,
2013-05-13 08:11:00,57.0,53.0,29.95,North,0,0.0,1.0,88,0.00,,,0.00,,2013-05-13 15:11:00,
2013-05-13 08:21:00,57.0,53.0,29.94,NNE,12,1.0,2.0,88,0.00,,,0.00,,2013-05-13 15:21:00,
2013-05-13 08:31:00,58.0,54.0,29.95,North,0,5.0,6.0,87,0.00,,,0.00,,2013-05-13 15:31:00,
2013-05-13 08:42:00,58.0,54.0,29.95,North,0,5.0,6.0,87,0.00,,,0.00,,2013-05-13 15:42:00,
2013-05-13 08:52:00,58.0,54.0,29.95,North,0,5.0,6.0,87,0.00,,,0.00,,2013-05-13 15:52:00,
2013-05-13 09:03:00,58.0,54.0,29.94,NNW,338,0.0,0.0,86,0.00,,,0.00,,2013-05-13 16:03:00,
2013-05-13 09:11:00,58.0,54.0,29.94,NNW,338,0.0,0.0,86,0.00,,,0.00,,2013-05-13 16:11:00,
2013-05-13 09:21:00,58.0,54.0,29.94,NNW,338,0.0,0.0,86,0.00,,,0.00,,2013-05-13 16:21:00,
2013-05-13 09:33:00,58.0,54.0,29.94,NE,45,0.0,0.0,85,0.00,,,0.00,,2013-05-13 16:33:00,
2013-05-13 09:42:00,59.0,54.0,29.94,East,82,1.0,2.0,85,0.00,,,0.00,,2013-05-13 16:42:00,
2013-05-13 09:52:00,59.0,54.0,29.94,East,82,1.0,2.0,85,0.00,,,0.00,,2013-05-13 16:52:00,
2013-05-13 10:02:00,59.0,54.0,29.94,NNW,338,1.0,1.0,85,0.00,,,0.00,,2013-05-13 17:02:00,
2013-05-13 10:11:00,59.0,54.0,29.94,NNW,338,1.0,1.0,85,0.00,,,0.00,,2013-05-13 17:11:00,
2013-05-13 10:21:00,59.0,54.0,29.93,ESE,111,0.0,2.0,85,0.00,,,0.00,,2013-05-13 17:21:00,
2013-05-13 10:32:00,60.0,55.0,29.93,WNW,292,0.0,0.0,85,0.00,,,0.00,,2013-05-13 17:32:00,
2013-05-13 10:41:00,60.0,55.0,29.93,WNW,292,0.0,0.0,85,0.00,,,0.00,,2013-05-13 17:41:00,
2013-05-13 10:54:00,60.0,55.0,29.93,WNW,292,0.0,0.0,85,0.00,,,0.00,,2013-05-13 17:54:00,
2013-05-13 11:03:00,60.0,55.0,29.93,WNW,292,0.0,0.0,85,0.00,,,0.00,,2013-05-13 18:03:00,
2013-05-13 11:12:00,60.0,55.0,29.93,WNW,292,0.0,0.0,85,0.00,,,0.00,,2013-05-13 18:12:00,
2013-05-13 11:32:00,67.0,59.0,29.91,North,0,0.0,0.0,75,0.00,,,0.00,,2013-05-13 18:32:00,
2013-05-13 12:01:00,66.0,58.0,29.88,ESE,112,0.0,0.0,75,0.00,,,0.00,,2013-05-13 19:01:00,
2013-05-13 12:11:00,66.0,58.0,29.88,ESE,112,0.0,0.0,75,0.00,,,0.00,,2013-05-13 19:11:00,
2013-05-13 12:21:00,65.0,56.0,29.88,SSW,202,2.0,2.0,74,0.00,,,0.00,,2013-05-13 19:21:00,
2013-05-13 12:32:00,65.0,57.0,29.88,ENE,68,2.0,2.0,75,0.00,,,0.00,,2013-05-13 19:32:00,
2013-05-13 12:43:00,65.0,57.0,29.88,East,90,0.0,0.0,75,0.00,,,0.00,,2013-05-13 19:43:00,
2013-05-13 12:53:00,65.0,57.0,29.88,East,90,0.0,0.0,75,0.00,,,0.00,,2013-05-13 19:53:00,
2013-05-13 13:01:00,65.0,57.0,29.88,East,90,0.0,0.0,75,0.00,,,0.00,,2013-05-13 20:01:00,
2013-05-13 13:11:00,65.0,57.0,29.88,East,90,0.0,0.0,75,0.00,,,0.00,,2013-05-13 20:11:00,
2013-05-13 13:23:00,63.0,55.0,29.88,ENE,68,0.0,0.0,76,0.00,,,0.00,,2013-05-13 20:23:00,
2013-05-13 13:34:00,63.0,56.0,29.88,North,4,0.0,3.0,77,0.00,,,0.00,,2013-05-13 20:34:00,
2013-05-13 13:44:00,63.0,56.0,29.88,North,4,0.0,3.0,77,0.00,,,0.00,,2013-05-13 20:44:00,
2013-05-13 13:53:00,63.0,56.0,29.88,North,4,0.0,3.0,77,0.00,,,0.00,,2013-05-13 20:53:00,
2013-05-13 14:02:00,62.0,55.0,29.88,ENE,68,2.0,2.0,77,0.00,,,0.00,,2013-05-13 21:02:00,
2013-05-13 14:14:00,62.0,55.0,29.88,ENE,68,2.0,2.0,77,0.00,,,0.00,,2013-05-13 21:14:00,
2013-05-13 14:23:00,62.0,55.0,29.88,ENE,68,2.0,2.0,77,0.00,,,0.00,,2013-05-13 21:23:00,
2013-05-13 14:33:00,60.0,53.0,29.88,ENE,68,2.0,3.0,78,0.00,,,0.00,,2013-05-13 21:33:00,
2013-05-13 14:43:00,60.0,53.0,29.88,ENE,68,2.0,3.0,78,0.00,,,0.00,,2013-05-13 21:43:00,
2013-05-13 14:53:00,61.0,53.0,29.87,ENE,71,5.0,12.0,76,0.00,,,0.00,,2013-05-13 21:53:00,
2013-05-13 15:02:00,61.0,54.0,29.87,ENE,68,5.0,5.0,77,0.00,,,0.00,,2013-05-13 22:02:00,
2013-05-13 15:12:00,61.0,54.0,29.87,ENE,68,5.0,5.0,77,0.00,,,0.00,,2013-05-13 22:12:00,
2013-05-13 15:22:00,62.0,55.0,29.87,NE,45,4.0,5.0,77,0.00,,,0.00,,2013-05-13 22:22:00,
2013-05-13 15:32:00,62.0,54.0,29.88,East,90,3.0,3.0,76,0.00,,,0.00,,2013-05-13 22:32:00,
2013-05-13 15:42:00,62.0,54.0,29.89,NNE,22,3.0,3.0,75,0.00,,,0.00,,2013-05-13 22:42:00,
2013-05-13 15:52:00,62.0,54.0,29.89,NNE,22,3.0,3.0,75,0.00,,,0.00,,2013-05-13 22:52:00,
2013-05-13 16:01:00,62.0,53.0,29.88,NNE,22,3.0,5.0,72,0.00,,,0.00,,2013-05-13 23:01:00,
2013-05-13 16:12:00,62.0,53.0,29.88,NNE,22,3.0,5.0,72,0.00,,,0.00,,2013-05-13 23:12:00,
2013-05-13 16:23:00,62.0,53.0,29.88,NNE,22,3.0,5.0,72,0.00,,,0.00,,2013-05-13 23:23:00,
2013-05-13 16:33:00,62.0,51.0,29.86,NNE,22,3.0,8.0,68,0.00,,,0.00,,2013-05-13 23:33:00,
2013-05-13 16:42:00,62.0,51.0,29.86,NNE,22,3.0,8.0,68,0.00,,,0.00,,2013-05-13 23:42:00,
2013-05-13 16:54:00,62.0,52.0,29.88,NNW,345,3.0,3.0,69,0.00,,,0.00,,2013-05-13 23:54:00,
2013-05-13 17:02:00,63.0,53.0,29.90,WNW,292,3.0,3.0,69,0.00,,,0.00,,2013-05-14 00:02:00,
2013-05-13 17:12:00,62.0,52.0,29.95,SE,136,1.0,3.0,71,0.00,,,0.00,,2013-05-14 00:12:00,
2013-05-13 17:22:00,62.0,52.0,29.95,SE,136,1.0,3.0,71,0.00,,,0.00,,2013-05-14 00:22:00,
2013-05-13 17:31:00,62.0,52.0,29.95,SE,136,1.0,3.0,71,0.00,,,0.00,,2013-05-14 00:31:00,
2013-05-13 17:41:00,62.0,52.0,29.95,SE,136,1.0,3.0,71,0.00,,,0.00,,2013-05-14 00:41:00,
2013-05-13 17:51:00,62.0,52.0,29.95,SE,136,1.0,3.0,71,0.00,,,0.00,,2013-05-14 00:51:00,
2013-05-13 18:01:00,62.0,52.0,29.95,SE,136,1.0,3.0,71,0.00,,,0.00,,2013-05-14 01:01:00,
2013-05-13 18:21:00,56.0,49.0,29.98,SSW,202,1.0,1.0,78,0.00,,,0.00,,2013-05-14 01:21:00,
2013-05-13 18:32:00,56.0,49.0,30.01,North,0,2.0,2.0,78,0.00,,,0.00,,2013-05-14 01:32:00,
2013-05-13 18:43:00,56.0,49.0,30.01,North,0,2.0,2.0,78,0.00,,,0.00,,2013-05-14 01:43:00,
2013-05-13 18:53:00,55.0,49.0,30.01,NNW,343,0.0,1.0,79,0.00,,,0.00,,2013-05-14 01:53:00,
2013-05-13 19:01:00,55.0,49.0,30.01,NNW,338,0.0,1.0,80,0.00,,,0.00,,2013-05-14 02:01:00,
2013-05-13 19:11:00,55.0,49.0,30.04,NNW,338,0.0,0.0,81,0.00,,,0.00,,2013-05-14 02:11:00,
2013-05-13 19:21:00,55.0,49.0,30.04,NNW,338,0.0,0.0,81,0.00,,,0.00,,2013-05-14 02:21:00,
2013-05-13 19:31:00,55.0,49.0,30.04,NNW,338,0.0,0.0,81,0.00,,,0.00,,2013-05-14 02:31:00,
2013-05-13 19:42:00,55.0,49.0,30.04,NNW,338,0.0,0.0,81,0.00,,,0.00,,2013-05-14 02:42:00,
2013-05-13 19:52:00,55.0,50.0,30.05,NNW,338,0.0,0.0,82,0.00,,,0.00,,2013-05-14 02:52:00,
2013-05-13 20:01:00,54.0,49.0,30.05,NNW,338,0.0,0.0,82,0.00,,,0.00,,2013-05-14 03:01:00,
2013-05-13 20:11:00,54.0,49.0,30.05,NNW,338,0.0,0.0,82,0.00,,,0.00,,2013-05-14 03:11:00,
2013-05-13 20:21:00,54.0,49.0,30.05,NNW,338,0.0,0.0,82,0.00,,,0.00,,2013-05-14 03:21:00,
2013-05-13 20:32:00,53.0,48.0,30.07,NNW,338,0.0,2.0,82,0.00,,,0.00,,2013-05-14 03:32:00,
2013-05-13 20:42:00,53.0,48.0,30.07,NNW,338,0.0,2.0,82,0.00,,,0.00,,2013-05-14 03:42:00,
2013-05-13 20:53:00,53.0,48.0,30.09,NNW,338,0.0,0.0,82,0.00,,,0.00,,2013-05-14 03:53:00,
2013-05-13 21:02:00,52.0,47.0,30.09,NNW,338,0.0,0.0,82,0.00,,,0.00,,2013-05-14 04:02:00,
2013-05-13 21:12:00,52.0,47.0,30.09,NNW,338,0.0,0.0,82,0.00,,,0.00,,2013-05-14 04:12:00,
2013-05-13 21:22:00,52.0,47.0,30.10,North,0,1.0,1.0,82,0.00,,,0.00,,2013-05-14 04:22:00,
2013-05-13 21:32:00,51.0,46.0,30.10,North,0,0.0,0.0,82,0.00,,,0.00,,2013-05-14 04:32:00,
2013-05-13 21:42:00,51.0,46.0,30.10,North,0,0.0,0.0,82,0.00,,,0.00,,2013-05-14 04:42:00,
2013-05-13 21:53:00,51.0,46.0,30.10,North,0,0.0,0.0,82,0.00,,,0.00,,2013-05-14 04:53:00,
2013-05-13 22:01:00,51.0,46.0,30.10,North,0,0.0,0.0,82,0.00,,,0.00,,2013-05-14 05:01:00,
2013-05-13 22:12:00,50.0,45.0,30.12,NE,45,1.0,2.0,83,0.00,,,0.00,,2013-05-14 05:12:00,
2013-05-13 22:22:00,50.0,45.0,30.12,NE,45,1.0,2.0,83,0.00,,,0.00,,2013-05-14 05:22:00,
2013-05-13 22:32:00,50.0,45.0,30.13,NNE,22,0.0,0.0,83,0.00,,,0.00,,2013-05-14 05:32:00,
2013-05-13 22:42:00,50.0,45.0,30.13,NNW,338,0.0,0.0,83,0.00,,,0.00,,2013-05-14 05:42:00,
2013-05-13 22:52:00,50.0,45.0,30.13,NNW,338,0.0,0.0,83,0.00,,,0.00,,2013-05-14 05:52:00,
2013-05-13 23:01:00,50.0,45.0,30.14,NNW,338,0.0,0.0,84,0.00,,,0.00,,2013-05-14 06:01:00,
2013-05-13 23:12:00,50.0,45.0,30.14,NNW,338,0.0,0.0,84,0.00,,,0.00,,2013-05-14 06:12:00,
2013-05-13 23:21:00,50.0,45.0,30.14,WNW,292,0.0,0.0,84,0.00,,,0.00,,2013-05-14 06:21:00,
2013-05-13 23:31:00,50.0,45.0,30.14,WNW,292,0.0,0.0,84,0.00,,,0.00,,2013-05-14 06:31:00,
2013-05-13 23:42:00,50.0,45.0,30.14,WNW,292,0.0,0.0,84,0.00,,,0.00,,2013-05-14 06:42:00,
2013-05-13 23:52:00,50.0,45.0,30.14,WNW,292,0.0,0.0,84,0.00,,,0.00,,2013-05-14 06:52:00,